STARLINK-34544, 64865

Orbit data source: Space-Track

STARLINK-34544, 64865 is a payload satellite owned by SpaceX/Seattle (US) in SSO that was launched on Sat, 19 Jul 2025 UTC via an FALCON 9 launch vehicle from the Air Force Western Test Range (AFWTR). Payload-class satellites include a variety of spacecraft equipped with specific instruments for various scientific and technological missions. These include communications satellites like Starlink; space stations such as the ISS; scientific satellites like the Hubble; Earth observation satellites from companies like Planet Labs, Umbra, and HawkEye 360; GPS; miniature CubeSats for education and research; and military/defense satellites.

Loading next visibility...
Identifier
64865, 2025-152Z
Orbit
SSO
Country
Flag of USUS
Related business
Manufacturer
SpaceX/Seattle
Mission
Operational Commercial Communications
Bus & Motor
STARLINK V2MO, Unknown motor
Mass
575 kg wet, ~530 kg dry
Launch date (UTC)
2025-07-19 (9 months ago)
Launch vehicle
FALCON 9
Launch site
Air Force Western Test Range (AFWTR)
Object type
Payload
Rocket body
Debris
Shape & HBR
Box + 2 Pan, 17.7 m
Radar Cross Section
36.964 m², Large (>1 m²)

Expand to show TLE details & history
Last TLE update: 10 hours ago

TLE from 10 hours ago
0 STARLINK-34544
1 64865U 25152Z   26095.15962439  .00011495  00000-0  79860-3 0  9998
2 64865  97.6011 311.6441 0002151  92.9190 267.2283 15.05693520 39406
Epoch: 2026-04-05T03:49Z
TLE epoch observation values (Epoch: 2026-04-05T03:49:51.547Z)
Latitude
-0.00001°
Longitude
60.71028°
Altitude
552.515 km
Speed
7.585 km/s
True Right ascension
20h 46m 34s
True Declination
0° 00' 00"
Sunlit
Object was in daylight at epoch
Visualization orbit readout
Latitude
Unknown
Longitude
Unknown
Altitude
Unknown
Speed
Unknown
Apparent Right ascension
Unknown
Apparent Declination
Unknown
Sunlit
N/A
Visualization observer readout
Local Sidereal Time
20:10:59
Azimuth
Unknown
Elevation
Unknown
Doppler factor
Unknown
Orbital elements
Apogee altitude
547.86 km
Perigee altitude
544.882 km
Semi-major axis
6,924.508 km
Eccentricity
0.00022
Inclination
97.6011°
RAAN
311.6441°
Arg. of periapsis
92.919°
True anomaly
267.20368°
Mean anomaly
267.2283°
Eccentric anomaly
267.21599°
Mean motion
3.76669 °/min
Orbital period
95.57 mins
BSTAR
0.0007986
Loading maneuver chart data...
Computing Atmospheric mass density...
Loading historical data...
Loading historical data...
Loading historical data...
Loading historical data...
Loading historical data...
Loading historical data...
Loading historical data...

Documentation

Showing up to 5 results
|